Time,TemperatureF,DewpointF,PressureIn,WindDirection,WindDirectionDegrees,WindSpeedMPH,WindSpeedGustMPH,Humidity,HourlyPrecipIn,Conditions,Clouds,dailyrainin,SoftwareType,DateUTC
2013-03-28 00:08:00,34.7,33.0,29.88,NE,34,0.0,0.0,93,0.01,,,0.00,weatherlink.com 1.10,2013-03-28 04:08:00,
2013-03-28 00:23:00,34.5,33.0,29.88,NE,34,0.0,0.0,93,0.01,,,0.00,weatherlink.com 1.10,2013-03-28 04:23:00,
2013-03-28 00:39:00,34.5,33.0,29.88,NNE,13,0.0,0.0,94,0.01,,,0.00,weatherlink.com 1.10,2013-03-28 04:39:00,
2013-03-28 00:55:00,34.4,33.0,29.88,NNE,13,0.0,0.0,94,0.01,,,0.00,weatherlink.com 1.10,2013-03-28 04:55:00,
2013-03-28 01:09:00,34.4,33.0,29.88,NNE,13,0.0,0.0,94,0.00,,,0.00,weatherlink.com 1.10,2013-03-28 05:09:00,
2013-03-28 01:25:00,34.3,33.0,29.88,NNE,13,0.0,0.0,94,0.00,,,0.00,weatherlink.com 1.10,2013-03-28 05:25:00,
2013-03-28 01:39:00,34.2,33.0,29.88,NNE,13,0.0,0.0,94,0.00,,,0.00,weatherlink.com 1.10,2013-03-28 05:39:00,
2013-03-28 01:55:00,34.0,33.0,29.88,NNE,13,0.0,0.0,94,0.00,,,0.00,weatherlink.com 1.10,2013-03-28 05:55:00,
2013-03-28 02:10:00,33.8,32.0,29.88,NNE,13,0.0,0.0,94,0.00,,,0.00,weatherlink.com 1.10,2013-03-28 06:10:00,
2013-03-28 02:25:00,33.7,33.0,29.88,NNE,13,0.0,0.0,95,0.00,,,0.00,weatherlink.com 1.10,2013-03-28 06:25:00,
2013-03-28 02:40:00,33.5,32.0,29.88,NNE,13,0.0,0.0,94,0.00,,,0.00,weatherlink.com 1.10,2013-03-28 06:40:00,
2013-03-28 02:55:00,33.4,32.0,29.88,NNE,13,0.0,0.0,94,0.00,,,0.00,weatherlink.com 1.10,2013-03-28 06:55:00,
2013-03-28 03:10:00,33.1,32.0,29.88,NNE,13,0.0,0.0,95,0.00,,,0.00,weatherlink.com 1.10,2013-03-28 07:10:00,
2013-03-28 03:25:00,33.0,32.0,29.88,NNE,13,0.0,0.0,95,0.00,,,0.00,weatherlink.com 1.10,2013-03-28 07:25:00,
2013-03-28 03:40:00,33.0,32.0,29.88,NNE,13,0.0,0.0,95,0.00,,,0.00,weatherlink.com 1.10,2013-03-28 07:40:00,
2013-03-28 04:41:00,32.1,31.0,29.88,NNE,13,0.0,0.0,95,0.00,,,0.00,weatherlink.com 1.10,2013-03-28 08:41:00,
2013-03-28 04:56:00,31.7,30.0,29.88,NNE,13,0.0,0.0,94,0.00,,,0.00,weatherlink.com 1.10,2013-03-28 08:56:00,
2013-03-28 05:11:00,31.4,30.0,29.89,NNE,13,0.0,0.0,95,0.00,,,0.00,weatherlink.com 1.10,2013-03-28 09:11:00,
2013-03-28 05:27:00,31.3,30.0,29.89,NNE,13,0.0,0.0,95,0.00,,,0.00,weatherlink.com 1.10,2013-03-28 09:27:00,
2013-03-28 05:42:00,31.2,30.0,29.89,NNE,13,0.0,0.0,95,0.00,,,0.00,weatherlink.com 1.10,2013-03-28 09:42:00,
2013-03-28 05:57:00,31.1,30.0,29.89,NNE,13,0.0,0.0,95,0.00,,,0.00,weatherlink.com 1.10,2013-03-28 09:57:00,
2013-03-28 06:12:00,31.2,30.0,29.89,NNE,13,0.0,0.0,95,0.00,,,0.00,weatherlink.com 1.10,2013-03-28 10:12:00,
2013-03-28 06:27:00,31.1,30.0,29.90,NNE,13,0.0,0.0,95,0.00,,,0.00,weatherlink.com 1.10,2013-03-28 10:27:00,
2013-03-28 06:42:00,31.1,30.0,29.90,NNE,13,0.0,0.0,95,0.00,,,0.00,weatherlink.com 1.10,2013-03-28 10:42:00,
2013-03-28 06:58:00,31.3,30.0,29.90,NNE,13,0.0,0.0,95,0.00,,,0.00,weatherlink.com 1.10,2013-03-28 10:58:00,
2013-03-28 07:13:00,31.5,31.0,29.91,NNE,13,0.0,0.0,96,0.00,,,0.00,weatherlink.com 1.10,2013-03-28 11:13:00,
2013-03-28 07:28:00,31.7,31.0,29.91,NNE,13,0.0,0.0,96,0.00,,,0.00,weatherlink.com 1.10,2013-03-28 11:28:00,
2013-03-28 07:43:00,32.1,31.0,29.92,NNE,13,0.0,1.0,96,0.00,,,0.00,weatherlink.com 1.10,2013-03-28 11:43:00,
2013-03-28 07:58:00,32.5,32.0,29.92,NNE,13,0.0,0.0,96,0.00,,,0.00,weatherlink.com 1.10,2013-03-28 11:58:00,
2013-03-28 08:13:00,33.1,32.0,29.92,NNE,13,0.0,0.0,96,0.00,,,0.00,weatherlink.com 1.10,2013-03-28 12:13:00,
2013-03-28 08:29:00,34.0,33.0,29.92,NNE,13,0.0,0.0,96,0.00,,,0.00,weatherlink.com 1.10,2013-03-28 12:29:00,
2013-03-28 08:45:00,35.2,34.0,29.93,NNE,13,0.0,0.0,96,0.00,,,0.00,weatherlink.com 1.10,2013-03-28 12:45:00,
2013-03-28 08:59:00,36.3,35.0,29.93,NNE,13,0.0,0.0,94,0.00,,,0.00,weatherlink.com 1.10,2013-03-28 12:59:00,
2013-03-28 09:14:00,37.5,34.0,29.93,WNW,302,0.0,1.0,87,0.00,,,0.00,weatherlink.com 1.10,2013-03-28 13:14:00,
2013-03-28 09:29:00,38.0,34.0,29.93,NE,36,0.0,3.0,85,0.00,,,0.00,weatherlink.com 1.10,2013-03-28 13:29:00,
2013-03-28 09:44:00,39.0,34.0,29.93,North,9,0.0,2.0,83,0.00,,,0.00,weatherlink.com 1.10,2013-03-28 13:44:00,
2013-03-28 09:59:00,39.8,34.0,29.93,North,9,0.0,0.0,80,0.00,,,0.00,weatherlink.com 1.10,2013-03-28 13:59:00,
2013-03-28 10:15:00,39.8,33.0,29.93,North,5,0.0,0.0,78,0.00,,,0.00,weatherlink.com 1.10,2013-03-28 14:15:00,
2013-03-28 10:29:00,39.9,34.0,29.93,North,5,0.0,0.0,78,0.00,,,0.00,weatherlink.com 1.10,2013-03-28 14:29:00,
2013-03-28 10:44:00,40.0,34.0,29.94,North,5,0.0,0.0,78,0.00,,,0.00,weatherlink.com 1.10,2013-03-28 14:44:00,
2013-03-28 10:59:00,40.3,34.0,29.94,North,5,0.0,0.0,78,0.00,,,0.00,weatherlink.com 1.10,2013-03-28 14:59:00,
2013-03-28 11:14:00,40.7,34.0,29.94,North,5,0.0,0.0,77,0.00,,,0.00,weatherlink.com 1.10,2013-03-28 15:14:00,
2013-03-28 11:29:00,41.7,34.0,29.94,SW,223,0.0,2.0,74,0.00,,,0.00,weatherlink.com 1.10,2013-03-28 15:29:00,
2013-03-28 11:45:00,43.2,33.0,29.94,West,267,0.0,3.0,68,0.00,,,0.00,weatherlink.com 1.10,2013-03-28 15:45:00,
2013-03-28 12:00:00,42.3,33.0,29.94,SSW,198,0.0,3.0,70,0.00,,,0.00,weatherlink.com 1.10,2013-03-28 16:00:00,
2013-03-28 12:15:00,43.8,33.0,29.94,North,355,0.0,3.0,66,0.00,,,0.00,weatherlink.com 1.10,2013-03-28 16:15:00,
2013-03-28 12:30:00,44.3,33.0,29.93,SSW,201,0.0,4.0,65,0.00,,,0.00,weatherlink.com 1.10,2013-03-28 16:30:00,
2013-03-28 12:45:00,43.6,33.0,29.93,SW,224,0.0,4.0,67,0.00,,,0.00,weatherlink.com 1.10,2013-03-28 16:45:00,
2013-03-28 13:01:00,43.7,33.0,29.93,WSW,251,0.0,3.0,67,0.00,,,0.00,weatherlink.com 1.10,2013-03-28 17:01:00,
2013-03-28 13:16:00,44.9,33.0,29.93,SW,232,3.0,5.0,64,0.00,,,0.00,weatherlink.com 1.10,2013-03-28 17:16:00,
2013-03-28 13:31:00,46.5,30.0,29.92,NNW,344,0.0,6.0,54,0.00,,,0.00,weatherlink.com 1.10,2013-03-28 17:31:00,
2013-03-28 13:45:00,46.7,29.0,29.92,NNE,23,3.0,9.0,51,0.00,,,0.00,weatherlink.com 1.10,2013-03-28 17:45:00,
2013-03-28 14:01:00,46.2,30.0,29.92,North,10,4.0,5.0,53,0.00,,,0.00,weatherlink.com 1.10,2013-03-28 18:01:00,
2013-03-28 15:01:00,44.7,31.0,29.92,NNE,19,0.0,1.0,58,0.00,,,0.00,weatherlink.com 1.10,2013-03-28 19:01:00,
2013-03-28 15:16:00,45.4,30.0,29.92,North,5,0.0,1.0,56,0.00,,,0.00,weatherlink.com 1.10,2013-03-28 19:16:00,
2013-03-28 16:16:00,45.6,31.0,29.92,West,271,0.0,3.0,57,0.00,,,0.00,weatherlink.com 1.10,2013-03-28 20:16:00,
2013-03-28 16:31:00,44.7,31.0,29.92,SW,225,0.0,7.0,59,0.00,,,0.00,weatherlink.com 1.10,2013-03-28 20:31:00,
2013-03-28 16:46:00,44.7,31.0,29.92,NE,37,2.0,6.0,58,0.00,,,0.00,weatherlink.com 1.10,2013-03-28 20:46:00,
2013-03-28 17:01:00,44.8,30.0,29.92,NE,37,0.0,0.0,57,0.00,,,0.00,weatherlink.com 1.10,2013-03-28 21:01:00,
2013-03-28 17:16:00,45.1,31.0,29.92,NE,37,0.0,0.0,58,0.00,,,0.00,weatherlink.com 1.10,2013-03-28 21:16:00,
2013-03-28 18:01:00,44.8,31.0,29.93,West,266,0.0,2.0,60,0.00,,,0.00,weatherlink.com 1.10,2013-03-28 22:01:00,
2013-03-28 18:16:00,44.7,31.0,29.93,West,265,0.0,1.0,59,0.00,,,0.00,weatherlink.com 1.10,2013-03-28 22:16:00,
2013-03-28 18:31:00,44.1,32.0,29.94,NW,304,0.0,0.0,62,0.00,,,0.00,weatherlink.com 1.10,2013-03-28 22:31:00,
2013-03-28 18:46:00,43.1,31.0,29.95,North,350,0.0,2.0,63,0.00,,,0.00,weatherlink.com 1.10,2013-03-28 22:46:00,
2013-03-28 19:16:00,41.4,32.0,29.95,North,350,0.0,0.0,70,0.00,,,0.00,weatherlink.com 1.10,2013-03-28 23:16:00,
2013-03-28 19:31:00,40.3,32.0,29.95,North,350,0.0,0.0,72,0.00,,,0.00,weatherlink.com 1.10,2013-03-28 23:31:00,
2013-03-28 19:47:00,39.2,32.0,29.96,North,350,0.0,0.0,75,0.00,,,0.00,weatherlink.com 1.10,2013-03-28 23:47:00,
2013-03-28 20:02:00,38.4,31.0,29.96,North,350,0.0,0.0,75,0.00,,,0.00,weatherlink.com 1.10,2013-03-29 00:02:00,
2013-03-28 20:16:00,37.7,31.0,29.96,North,350,0.0,0.0,78,0.00,,,0.00,weatherlink.com 1.10,2013-03-29 00:16:00,
2013-03-28 20:31:00,37.0,31.0,29.96,North,350,0.0,0.0,78,0.00,,,0.00,weatherlink.com 1.10,2013-03-29 00:31:00,
2013-03-28 21:02:00,35.3,30.0,29.97,North,350,0.0,0.0,81,0.00,,,0.00,weatherlink.com 1.10,2013-03-29 01:02:00,
2013-03-28 21:17:00,34.5,30.0,29.97,North,350,0.0,0.0,82,0.00,,,0.00,weatherlink.com 1.10,2013-03-29 01:17:00,
2013-03-28 21:32:00,33.9,29.0,29.98,North,350,0.0,0.0,83,0.00,,,0.00,weatherlink.com 1.10,2013-03-29 01:32:00,
2013-03-28 21:47:00,33.3,29.0,29.98,North,350,0.0,0.0,84,0.00,,,0.00,weatherlink.com 1.10,2013-03-29 01:47:00,
2013-03-28 22:02:00,32.7,29.0,29.98,North,350,0.0,0.0,85,0.00,,,0.00,weatherlink.com 1.10,2013-03-29 02:02:00,
2013-03-28 22:17:00,32.3,29.0,29.98,North,350,0.0,0.0,86,0.00,,,0.00,weatherlink.com 1.10,2013-03-29 02:17:00,
2013-03-28 22:32:00,31.9,28.0,29.98,North,350,0.0,0.0,86,0.00,,,0.00,weatherlink.com 1.10,2013-03-29 02:32:00,
2013-03-28 22:47:00,31.5,28.0,29.97,North,350,0.0,0.0,87,0.00,,,0.00,weatherlink.com 1.10,2013-03-29 02:47:00,
2013-03-28 23:02:00,31.4,28.0,29.97,North,350,0.0,0.0,88,0.00,,,0.00,weatherlink.com 1.10,2013-03-29 03:02:00,
2013-03-28 23:17:00,31.4,28.0,29.97,North,350,0.0,0.0,88,0.00,,,0.00,weatherlink.com 1.10,2013-03-29 03:17:00,
2013-03-28 23:32:00,31.0,28.0,29.97,North,350,0.0,0.0,88,0.00,,,0.00,weatherlink.com 1.10,2013-03-29 03:32:00,
2013-03-28 23:47:00,30.9,28.0,29.97,North,350,0.0,0.0,89,0.00,,,0.00,weatherlink.com 1.10,2013-03-29 03:47:00,